TimeMDT,TemperatureF,Dew PointF,Humidity,Sea Level PressureIn,VisibilityMPH,Wind Direction,Wind SpeedMPH,Gust SpeedMPH,PrecipitationIn,Events,Conditions,WindDirDegrees,DateUTC
12:53 AM,54.0,53.1,97,29.95,10.0,North,6.9,-,N/A,,Overcast,350,2013-09-11 06:53:00
1:53 AM,54.0,53.1,97,29.96,10.0,Calm,Calm,-,N/A,,Overcast,0,2013-09-11 07:53:00
2:53 AM,54.0,53.1,97,29.96,10.0,NW,5.8,-,N/A,,Overcast,320,2013-09-11 08:53:00
3:53 AM,53.1,51.1,93,29.96,10.0,Calm,Calm,-,N/A,,Overcast,0,2013-09-11 09:53:00
4:41 AM,53.6,53.6,100,30.26,10.0,Calm,Calm,-,N/A,,Mostly Cloudy,0,2013-09-11 10:41:00
4:53 AM,53.1,53.1,100,29.96,10.0,WNW,3.5,-,N/A,,Scattered Clouds,300,2013-09-11 10:53:00
5:53 AM,53.1,52.0,96,29.97,10.0,Calm,Calm,-,N/A,,Overcast,0,2013-09-11 11:53:00
6:53 AM,53.1,51.1,93,29.99,10.0,Calm,Calm,-,0.00,Rain,Light Rain,0,2013-09-11 12:53:00
7:53 AM,52.0,51.1,97,30.01,10.0,South,3.5,-,0.00,,Scattered Clouds,190,2013-09-11 13:53:00
8:53 AM,54.0,53.1,97,30.01,10.0,South,3.5,-,N/A,,Overcast,180,2013-09-11 14:53:00
9:53 AM,57.0,51.1,81,30.01,10.0,Calm,Calm,-,N/A,,Scattered Clouds,0,2013-09-11 15:53:00
10:53 AM,60.1,52.0,75,29.99,10.0,North,4.6,-,0.00,,Mostly Cloudy,350,2013-09-11 16:53:00
11:53 AM,62.1,52.0,70,29.99,10.0,Variable,4.6,-,0.00,Rain,Light Rain,0,2013-09-11 17:53:00
12:53 PM,63.0,51.1,65,29.96,10.0,North,5.8,-,0.00,,Overcast,10,2013-09-11 18:53:00
1:53 PM,63.0,52.0,67,29.96,10.0,Calm,Calm,-,0.02,Rain,Rain,0,2013-09-11 19:53:00
2:53 PM,68.0,51.1,55,29.91,10.0,Variable,4.6,-,0.01,,Mostly Cloudy,0,2013-09-11 20:53:00
3:53 PM,63.0,52.0,67,29.95,10.0,NNW,11.5,21.9,N/A,,Mostly Cloudy,330,2013-09-11 21:53:00
4:53 PM,57.9,53.1,84,30.00,10.0,North,6.9,-,0.05,Rain,Light Rain,350,2013-09-11 22:53:00
5:53 PM,57.9,54.0,87,30.00,10.0,NW,4.6,-,0.03,,Mostly Cloudy,310,2013-09-11 23:53:00
6:53 PM,57.0,54.0,89,30.01,10.0,Calm,Calm,-,N/A,,Mostly Cloudy,0,2013-09-12 00:53:00
7:53 PM,55.0,54.0,96,30.04,10.0,Calm,Calm,-,N/A,,Mostly Cloudy,0,2013-09-12 01:53:00
8:53 PM,52.0,52.0,100,30.07,10.0,Calm,Calm,-,N/A,,Overcast,0,2013-09-12 02:53:00
9:53 PM,54.0,53.1,97,30.04,10.0,Calm,Calm,-,N/A,,Overcast,0,2013-09-12 03:53:00
10:53 PM,53.1,52.0,96,30.04,10.0,Calm,Calm,-,0.00,,Mostly Cloudy,0,2013-09-12 04:53:00
11:53 PM,51.1,50.0,96,30.03,10.0,SSW,4.6,-,N/A,,Scattered Clouds,210,2013-09-12 05:53:00